Lid_Strength_Index
0 0 1 1 1 1 1 0 1 2 2 2 2 1 2 4 5 5 5 6 6 5
0 0 1 1 0 0 0 1 2 2 3 3 3 3 5 6 7 7 7 7 6 6
1 0 0 0 1 0 1 2 3 3 3 4 6 6 7 7 7 8 7 7 7 6
1 1 0 1 0 0 1 2 4 5 7 7 7 8 8 8 8 8 8 7 6 6
1 1 1 2 3 4 6 5 6 7 8 8 8 8 9 9 8 8 7 6 6 6
4 5 5 7 7 7 7 6 7 7 7 8 8 8 8 8 7 6 5 5 6 5
6 7 7 7 7 6 6 7 7 6 6 7 6 6 6 6 5 5 5 5 5 5
6 7 6 7 7 7 7 7 7 6 6 6 6 6 5 5 5 5 5 4 5 5
7 7 7 7 7 7 7 6 6 7 7 7 7 8 8 8 6 5 5 6 5 5
6 7 8 8 8 7 7 7 7 6 6 6 5 8 9 9 7 7 7 6 6 6
6 6 6 6 7 7 6 6 5 5 5 6 7 9 10 10 8 8 7 7 6 6
5 6 6 7 6 6 6 5 6 6 7 8 7 10 10 10 8 8 8 7 7 7
5 5 5 5 5 5 6 7 7 8 8 9 7 11 11 11 10 10 10 9 9 9
5 5 6 6 7 7 8 8 8 9 8 9 9 9 11 11 11 11 12 12 11 9